Greeley, CO

2:29 PM MST on December 08, 2019 (GMT -0700)
Greeley-Weld County

Weather History for KGXY - November, 2019

Change the Weather History Date:

Friday, November 15, 2019

  Actual Average Record
Temperature  
Mean Temperature 38 °F -  
Max Temperature 53 °F - 75 °F (2016)
Min Temperature 24 °F - 3 °F (2014)
Degree Days  
Heating Degree Days 26    
Month to date heating degree days 422  
Cooling Degree Days 0    
Month to date cooling degree days 0  
Moisture  
Dew Point 30 °F    
Average Humidity 76    
Maximum Humidity 96    
Minimum Humidity 46    
Precipitation  
Precipitation 0.00 in - 0.54 in (1987)
Snow  
Snow 0.00 in - - ()
Snow Depth 0.00 in    
Sea Level Pressure  
Sea Level Pressure 30.19 in    
Wind  
Wind Speed 2 mph ()    
Max Wind Speed 7 mph    
Max Gust Speed -    
Visibility 9.9 miles    
Events      
T = Trace of Precipitation, MM = Missing Value Source: Averaged Metar Reports

Daily Weather History Graph

Daily Weather History Graph

Search for Another Location

Airport or City:

Astronomy

Nov. 15, 2019 Rise Set
Actual Time 6:44 AM MST 4:41 PM MST
Civil Twilight 6:15 AM MST 5:10 PM MST
Nautical Twilight 5:42 AM MST 5:43 PM MST
Astronomical Twilight 5:10 AM MST 6:15 PM MST
Moon 7:18 PM MST (11/15) 9:43 AM MST (11/15)
Length of Visible Light 10h 55m
Length of Day
9h 56m
Waning Gibbous, 89% of the Moon is Illuminated
Nov 15
Waning Gibbous
Nov 19
Last Quarter
Nov 26
New
Dec 3
First Quarter
Dec 11
Full

Hourly Weather History & Observations

Time (MST) Temp. Windchill Dew Point Humidity Pressure Visibility Wind Dir Wind Speed Gust Speed Precip Events Conditions
12:56 AM 25.0 °F - 23.0 °F 92% 30.26 in 10.0 mi Calm Calm - N/A   Clear
1:56 AM 25.0 °F - 23.0 °F 92% 30.24 in 10.0 mi Calm Calm - N/A   Clear
2:56 AM 25.0 °F 19.3 °F 23.0 °F 92% 30.24 in 10.0 mi NW 4.6 mph - N/A   Clear
3:56 AM 27.0 °F 21.6 °F 25.0 °F 92% 30.24 in 10.0 mi WNW 4.6 mph - N/A   Clear
4:56 AM 26.1 °F 21.9 °F 24.1 °F 92% 30.25 in 10.0 mi NNW 3.5 mph - N/A   Clear
5:56 AM 26.1 °F 21.9 °F 25.0 °F 96% 30.26 in 10.0 mi NNW 3.5 mph - N/A   Clear
6:56 AM 25.0 °F - 21.9 °F 88% 30.28 in 10.0 mi Calm Calm - N/A   Clear
7:56 AM 34.0 °F 29.8 °F 28.9 °F 82% 30.28 in 10.0 mi WNW 4.6 mph - N/A   Clear
8:56 AM 36.0 °F 33.3 °F 30.9 °F 82% 30.27 in 10.0 mi NNW 3.5 mph - N/A   Clear
9:56 AM 39.9 °F 37.8 °F 32.0 °F 73% 30.25 in 10.0 mi West 3.5 mph - N/A   Clear
10:56 AM 45.0 °F - 30.9 °F 58% 30.23 in 10.0 mi Calm Calm - N/A   Clear
11:56 AM 46.9 °F - 30.9 °F 54% 30.18 in 10.0 mi Calm Calm - N/A   Clear
12:56 PM 48.9 °F - 32.0 °F 52% 30.16 in 10.0 mi WNW 3.5 mph - N/A   Clear
1:56 PM 51.1 °F - 32.0 °F 48% 30.14 in 10.0 mi Calm Calm - N/A   Clear
2:56 PM 53.1 °F - 34.0 °F 48% 30.13 in 10.0 mi SSE 4.6 mph - N/A   Clear
3:56 PM 51.1 °F - 34.0 °F 52% 30.12 in 10.0 mi Calm Calm - N/A   Clear
4:56 PM 44.1 °F 41.5 °F 35.1 °F 71% 30.16 in 10.0 mi North 4.6 mph - N/A   Clear
5:56 PM 42.1 °F 38.4 °F 35.1 °F 76% 30.17 in 10.0 mi North 5.8 mph - N/A   Clear
6:56 PM 39.9 °F - 35.1 °F 83% 30.17 in 10.0 mi Calm Calm - N/A   Clear
7:56 PM 42.1 °F 39.2 °F 35.1 °F 76% 30.14 in 10.0 mi NW 4.6 mph - N/A   Partly Cloudy
8:56 PM 37.9 °F 32.7 °F 33.1 °F 83% 30.14 in 10.0 mi NW 6.9 mph - N/A   Clear
9:56 PM 39.0 °F - 33.1 °F 79% 30.12 in 10.0 mi Calm Calm - N/A   Partly Cloudy
10:56 PM 37.0 °F 34.5 °F 32.0 °F 82% 30.10 in 10.0 mi SW 3.5 mph - N/A   Clear
11:56 PM 34.0 °F - 30.9 °F 89% 30.10 in 8.0 mi Calm Calm - N/A   Clear